Regional Weather Roundup
Issued by NWS

Home | Current Version | Previous Version | Graphics & Text | Print | Product List | Glossary On
Versions: 1 2 3 4 5 6 7 8 9 10 11 12 13 14 15 16 17 18 19 20 21 22 23 24 25 26 27 28 29 30 31 32 33 34 35 36 37 38 39 40 41 42 43 44 45 46 47 48 49 50
000
ASUS43 KFSD 240410
RWRSD

WEATHER ROUNDUP FOR SOUTH DAKOTA
NATIONAL WEATHER SERVICE SIOUX FALLS SD
1100 PM CDT SAT MAY 23 2015

NOTE: "FAIR" INDICATES FEW OR NO CLOUDS BELOW 12,000 FEET WITH NO
SIGNIFICANT WEATHER AND/OR OBSTRUCTIONS TO VISIBILITY.


SDZ001>005-009-010-012>017-240500-
NORTHWEST AND NORTH CENTRAL SOUTH DAKOTA

CITY           SKY/WX    TMP DP  RH WIND       PRES   REMARKS
BUFFALO          N/A     55  48  77 E9        30.01S
FAITH            N/A     54  50  86 NE12      30.07S
MOBRIDGE       CLOUDY    58  54  86 CALM      30.07R
$$

SDZ012>016-024>037-041>051-057-063-072>074-240500-
SOUTHWEST AND SOUTH CENTRAL SOUTH DAKOTA

CITY           SKY/WX    TMP DP  RH WIND       PRES   REMARKS
RAPID CTY ARPT CLOUDY    54  52  93 E13       30.03R
PIERRE         CLOUDY    57  54  89 NE6       30.04F
CUSTER         LGT RAIN  48  47  96 E7        30.05R FOG
ELLSWORTH AFB  CLOUDY    54  54 100 E10       30.03R
PHILIP         CLOUDY    56  55  97 E12       30.02S
PINE RIDGE     LGT RAIN  53  51  93 E9        30.01R
SPEARFISH      MOCLDY    50  50 100 E10       30.05S FOG
WINNER         CLOUDY    57  53  86 E8        30.04F
$$

SDZ004>011-016>023-039-040-240500-
NORTHEAST SOUTH DAKOTA

CITY           SKY/WX    TMP DP  RH WIND       PRES   REMARKS
ABERDEEN       PTCLDY    59  50  72 E6        30.09R
WATERTOWN      MOCLDY    59  48  67 E7        30.10R
BROOKINGS      MOCLDY    61  52  72 S5        30.09F
SISSETON         N/A     61  50  67 SE8       30.11R
$$

SDZ017-020-022-023-036>040-048>070-240500-
SOUTHEAST SOUTH DAKOTA

CITY           SKY/WX    TMP DP  RH WIND       PRES   REMARKS
SIOUX FALLS    LGT RAIN  61  55  81 E3        30.07F
HURON          MOCLDY    56  52  86 CALM      30.07S
CHAMBERLAIN    DRIZZLE   56  55  97 E5        30.05F
MITCHELL       CLOUDY    59  55  87 E5        30.06F
YANKTON        CLOUDY    57  54  88 E6        30.06F
$$

ABBREVIATIONS USED IN REMARKS
   TC - TEMPERATURE IN CELSIUS
  WCI - WIND CHILL INDEX
   HX - HEAT INDEX
  VSB - VISIBILITY




USA.gov is the U.S. government's official web portal to all federal, state and local government web resources and services.